Torna al catalogo

STARLINK-36318

AttivoComunicazioniVLEO
NORAD 68048·PAYLOAD·🇺🇸 United States

Lanciato Mar 2, 2026 da Vandenberg Space Force Base

Loading…

Prossimi Passaggi (prossime 24 ore)

TLE

AggiornatoSource: CelesTrak SupGP

Epoca: Sep 15, 2026, 03:38 UTC

1 68048C 26041J   26258.15187500 -.00046775  00000+0 -13819-2 0  2581
2 68048  53.1584 245.0633 0001333  89.1796 253.1408 15.34414751    16

Traccia STARLINK-36318 in tempo reale con AllMySat

Download on the App Store